Date,TemperatureHighF,TemperatureAvgF,TemperatureLowF,DewpointHighF,DewpointAvgF,DewpointLowF,HumidityHigh,HumidityAvg,HumidityLow,PressureMaxIn,PressureMinIn,WindSpeedMaxMPH,WindSpeedAvgMPH,GustSpeedMaxMPH,PrecipitationSumIn
2013-8-1,89,82,75,79,76,71,93,81,61,30.04,29.92,12,4,13,0.00
2013-8-2,89,85,75,80,77,72,92,77,69,30.03,29.92,11,3,12,0.00
2013-8-3,90,84,78,80,77,75,93,80,66,30.08,29.98,13,3,13,0.00
2013-8-4,88,84,78,80,78,76,95,82,73,30.08,29.99,15,3,15,0.29
2013-8-5,90,85,82,80,78,77,86,80,71,30.02,29.92,8,3,9,0.01
2013-8-6,88,82,73,81,78,71,96,87,71,29.98,29.87,8,2,12,3.16
2013-8-7,92,81,76,81,76,74,95,87,62,29.95,29.88,9,3,18,0.96
2013-8-8,90,81,75,79,76,71,95,85,62,30.00,29.90,12,4,18,0.23
2013-8-9,77,77,76,74,74,74,92,92,91,29.99,29.99,3,2,5,0.00
2013-8-10,91,82,73,81,76,71,95,83,65,30.10,30.01,7,3,0,0.00
2013-8-11,92,84,75,80,77,73,94,80,63,30.13,30.02,6,4,0,0.00
2013-8-12,91,83,76,81,77,74,94,82,59,30.11,29.98,5,2,6,0.00
2013-8-13,91,86,75,79,77,73,93,76,59,30.04,29.92,13,3,13,0.05
2013-8-14,89,84,78,80,77,74,94,81,61,29.98,29.90,13,3,15,0.04
2013-8-15,88,81,75,79,76,72,91,85,71,30.03,29.93,12,3,16,0.18
2013-8-16,91,85,76,80,78,73,91,78,61,30.03,29.93,11,3,11,0.38
2013-8-17,92,81,74,80,76,71,96,85,56,30.05,29.95,24,3,24,0.17
2013-8-18,90,78,73,81,75,71,95,90,66,30.09,29.97,19,4,21,1.22
2013-8-19,93,80,73,80,75,72,96,87,56,30.05,29.93,22,4,22,0.16
2013-8-20,92,79,73,78,74,71,95,86,59,30.05,29.96,13,3,15,0.01
2013-8-21,92,80,73,80,76,71,97,87,60,30.07,29.94,23,4,28,1.00
2013-8-22,91,78,73,79,75,71,97,92,64,30.05,29.94,11,3,13,0.20
2013-8-23,91,81,74,80,75,73,97,84,62,30.00,29.93,16,3,17,0.02
2013-8-24,90,80,73,81,75,72,96,87,68,30.08,29.97,19,3,21,1.01
2013-8-25,89,78,73,79,74,71,95,90,66,30.12,30.03,19,3,21,0.00
2013-8-26,91,80,73,78,74,70,94,84,57,30.11,29.97,16,3,17,0.18
2013-8-27,88,77,72,77,73,71,96,89,66,30.03,29.96,16,3,17,0.18
2013-8-28,90,76,72,78,73,70,96,89,57,30.03,29.95,17,2,20,1.38
2013-8-29,90,80,72,78,74,70,95,81,55,30.02,29.91,15,3,16,0.01
2013-8-30,88,81,74,79,76,71,93,84,62,29.99,29.88,9,2,11,0.56
2013-8-31,88,81,74,79,76,69,95,84,68,29.97,29.88,20,2,20,0.21